Location: Newark
(13.6797°N, 8.5297°E)
Time: 14:48:33
(UTC+00:00)

A-11 Canister half - Pass Details

Date: 19 January 2020
Orbit: 1517 x 1683 km, 47.2° (Epoch: 22 February)

Event Time Altitude Azimuth Distance (km) Brightness Sun altitude
Rises 07:20:16 0° 329° (NNW) 4,677 11.0 18.4°
Reaches altitude 10° 07:23:37 10° 337° (NNW) 3,710 10.6 19.2°
Maximum altitude 07:32:10 38° 43° (NE) 2,227 10.3 21.0°
Drops below altitude 10° 07:40:56 10° 108° (ESE) 3,823 12.9 22.8°
Sets 07:44:24 0° 116° (ESE) 4,833 13.1 23.6°
